EW3204 Weather Reports


Display with metric or nautical units.
time (UTC)temp
F
wind
direction
speed
MPH
gust
MPH
rain 1hr
in
rain 24hr
in
rain mn
in
humidity
%
barometer
mb
20260905181540 91 83 3.0 0.0 0.00 0.00 0.00 21 1009.7
20260905180037 90 56 1.0 0.0 0.00 0.00 0.00 22 1009.7
20260905173032 88 312 1.0 0.0 0.00 0.00 0.00 20 1009.7
20260905171534 88 312 1.0 0.0 0.00 0.00 0.00 20 1009.7
20260905170026 86 312 0.0 0.0 0.00 0.00 0.00 19 1009.7
20260905164530 85 252 2.0 0.0 0.00 0.00 0.00 18 1009.6
20260905163021 85 358 2.0 0.0 0.00 0.00 0.00 17 1009.6
20260905161519 84 358 1.0 0.0 0.00 0.00 0.00 17 1009.6
20260905160020 84 358 2.0 0.0 0.00 0.00 0.00 16 1009.4
20260905154519 83 359 2.0 0.0 0.00 0.00 0.00 17 1009.5
20260905153017 82 286 3.0 0.0 0.00 0.00 0.00 19 1009.4
20260905151516 81 283 5.0 0.0 0.00 0.00 0.00 19 1009.2
20260905150018 80 293 4.0 0.0 0.00 0.00 0.00 19 1009.1
20260905144516 80 256 1.0 0.0 0.00 0.00 0.00 20 1009.0
20260905143021 80 250 3.0 0.0 0.00 0.00 0.00 22 1009.0
20260905141510 79 256 4.0 0.0 0.00 0.00 0.00 22 1008.6
20260905140011 77 296 3.0 0.0 0.00 0.00 0.00 20 1008.4
20260905134510 76 303 3.0 0.0 0.00 0.00 0.00 20 1008.2
20260905133005 78 292 3.0 0.0 0.00 0.00 0.00 24 1008.0
20260905131501 80 167 2.0 0.0 0.00 0.00 0.00 22 1007.9
20260905130000 79 167 1.0 0.0 0.00 0.00 0.00 18 1007.7
20260905124559 80 167 1.0 0.0 0.00 0.00 0.00 17 1007.6
20260905123059 81 121 2.0 0.0 0.00 0.00 0.00 17 1007.6
20260905121609 83 110 5.0 0.0 0.00 0.00 0.00 18 1007.3
20260905120106 83 198 7.0 0.0 0.00 0.00 0.00 20 1007.3
20260905114554 84 198 5.0 0.0 0.00 0.00 0.00 19 1007.3
20260905113052 83 178 3.0 0.0 0.00 0.00 0.00 19 1007.4
20260905111607 82 333 1.0 0.0 0.00 0.00 0.00 20 1007.6
20260905110055 82 231 1.0 0.0 0.00 0.00 0.00 19 1007.7
20260905101549 83 239 8.0 0.0 0.00 0.00 0.00 20 1007.7
20260905100046 80 306 6.0 0.0 0.00 0.00 0.00 15 1007.8
20260905094541 82 295 5.0 0.0 0.00 0.00 0.00 15 1008.0
20260905093040 83 288 4.0 0.0 0.00 0.00 0.00 17 1008.0
20260905091537 84 244 7.0 0.0 0.00 0.00 0.00 15 1008.0
20260905090035 83 240 9.0 0.0 0.00 0.00 0.00 12 1008.0
20260905084535 84 290 11.0 0.0 0.00 0.00 0.00 9 1008.1
20260905083032 83 285 10.0 0.0 0.00 0.00 0.00 9 1008.4
20260905081531 84 252 14.0 0.0 0.00 0.00 0.00 9 1008.2
20260905080029 83 271 9.0 0.0 0.00 0.00 0.00 10 1008.6
20260905074528 84 236 14.0 0.0 0.00 0.00 0.00 9 1008.5
20260905073026 83 242 10.0 0.0 0.00 0.00 0.00 10 1008.4
20260905071538 84 227 9.0 0.0 0.00 0.00 0.00 9 1008.4
20260905070022 84 198 13.0 0.0 0.00 0.00 0.00 9 1008.4
20260905064522 84 238 8.0 0.0 0.00 0.00 0.00 8 1008.2
20260905063021 83 258 5.0 0.0 0.00 0.00 0.00 7 1008.1
20260905061527 84 220 4.0 0.0 0.00 0.00 0.00 7 1008.1
20260905060020 84 203 5.0 0.0 0.00 0.00 0.00 7 1008.1
20260905054536 85 215 10.0 0.0 0.00 0.00 0.00 8 1007.9
20260905053019 84 241 11.0 0.0 0.00 0.00 0.00 11 1007.9
20260905051519 84 256 12.0 0.0 0.00 0.00 0.00 11 1007.8
20260905050018 85 226 10.0 0.0 0.00 0.00 0.00 10 1007.8
20260905044521 84 269 3.0 0.0 0.00 0.00 0.00 10 1007.7
20260905043023 84 209 1.0 0.0 0.00 0.00 0.00 10 1007.8
20260905041514 85 292 2.0 0.0 0.00 0.00 0.00 9 1007.6
20260905040113 84 242 4.0 0.0 0.00 0.00 0.00 10 1007.5
20260905034553 84 353 6.0 0.0 0.00 0.00 0.00 19 1007.2
20260905033059 84 334 5.0 0.0 0.00 0.00 0.00 15 1007.2
20260905031553 87 272 4.0 0.0 0.00 0.00 0.00 10 1006.9
20260905030050 86 246 6.0 0.0 0.00 0.00 0.00 14 1006.5
20260905024555 88 196 3.0 0.0 0.00 0.00 0.00 9 1006.4
20260905023052 89 204 3.0 0.0 0.00 0.00 0.00 17 1006.3
20260905021550 90 312 5.0 0.0 0.00 0.00 0.00 9 1006.2
20260905020059 90 162 4.0 0.0 0.00 0.00 0.00 9 1006.1
20260905014548 91 208 7.0 0.0 0.00 0.00 0.00 10 1005.8
20260905013048 92 185 7.0 0.0 0.00 0.00 0.00 10 1005.7
20260905011546 93 184 9.0 0.0 0.00 0.00 0.00 9 1005.6
20260905010045 93 192 11.0 0.0 0.00 0.00 0.00 13 1005.4
20260905004646 95 227 7.0 0.0 0.00 0.00 0.00 13 1005.3
20260905003044 96 111 6.0 0.0 0.00 0.00 0.00 14 1005.2
20260905001527 96 256 7.0 0.0 0.00 0.00 0.00 15 1005.1
20260905000023 96 358 9.0 0.0 0.00 0.00 0.00 14 1004.8
20260904234521 98 332 7.0 0.0 0.00 0.00 0.00 11 1004.5
20260904233021 98 310 5.0 0.0 0.00 0.00 0.00 10 1004.9
20260904231527 98 321 7.0 0.0 0.00 0.00 0.00 10 1005.0
20260904230022 98 13 8.0 0.0 0.00 0.00 0.00 9 1005.0
20260904224518 99 281 9.0 0.0 0.00 0.00 0.00 8 1005.2
20260904223021 99 352 2.0 0.0 0.00 0.00 0.00 8 1005.4
20260904221514 98 129 5.0 0.0 0.00 0.00 0.00 8 1005.5
20260904220056 98 195 5.0 0.0 0.00 0.00 0.00 8 1005.6
20260904214554 99 131 2.0 0.0 0.00 0.00 0.00 8 1005.8
20260904213050 97 359 3.0 0.0 0.00 0.00 0.00 8 1005.9
20260904211548 97 79 4.0 0.0 0.00 0.00 0.00 8 1006.0
20260904210053 96 13 4.0 0.0 0.00 0.00 0.00 8 1006.0
20260904204547 96 344 4.0 0.0 0.00 0.00 0.00 9 1006.2
20260904203043 95 261 3.0 0.0 0.00 0.00 0.00 9 1006.3
20260904201551 94 274 3.0 0.0 0.00 0.00 0.00 9 1006.6
20260904200040 94 125 4.0 0.0 0.00 0.00 0.00 10 1006.9
20260904194549 94 138 5.0 0.0 0.00 0.00 0.00 9 1007.0
20260904193034 92 123 4.0 0.0 0.00 0.00 0.00 10 1007.2
20260904191534 92 67 6.0 0.0 0.00 0.00 0.00 10 1007.5
20260904190032 92 52 4.0 0.0 0.00 0.00 0.00 10 1007.7
20260904184530 91 83 6.0 0.0 0.00 0.00 0.00 11 1007.9
20260904183029 90 90 6.0 0.0 0.00 0.00 0.00 11 1008.0